Home > Weather > Kodiak > Past weeks

Flag for USA Past Weather in Kodiak, Alaska, USA — Yesterday and Last 2 Weeks

Now
53 °F

Light rain. Mostly cloudy.


Feels Like: 49 °F
Forecast: 49 / 54 °F
Wind: 13 mph from North

Location: Kodiak Weather Reporting Station

Current Time: Jun 25, 2016 at 11:35:47 AM

Latest Report: Jun 25, 2016 at 10:53 AM


Visibility: 10 mi

Pressure: 29.80 "Hg

Humidity: 93%

Dew Point: 51 °F

Location of KodiakLocation

Past Weather in Kodiak — Graph

°F

Kodiak Temperature Yesterday

Maximum temperature yesterday: 54 °F (at 12:53 PM)
Minimum temperature yesterday: 51 °F (at 9:53 PM)
Average temperature yesterday: 53 °F

High & Low Weather Summary for the Past Weeks

 TemperatureHumidityPressure
High72 °F (Jun 15, 1:53 PM)100% (Jun 24, 9:53 PM)30.19 "Hg (Jun 24, 9:53 PM)
Low40 °F (Jun 12, 4:53 AM)30% (Jun 15, 2:53 PM)29.70 "Hg (Jun 24, 1:53 PM)
Average56 °F73%29.96 "Hg
* Reported Jun 10 9:53 AM — Jun 25 9:53 AM, Kodiak, Weather by CustomWeather, © 2016

Note: Actual official high and low records may vary slightly from our data, if they occured in-between our weather recording intervals... More about our weather records

Advertising

Kodiak Weather History for the Previous 24 Hours

Scroll right to see more
 ConditionsComfort  
Time TempWeatherWind HumidityBarometerVisibility
9:53 AM
Sat, Jun 25
53 °FLight rain. Fog.14 mph93%29.80 "Hg6 mi
8:53 AM52 °FLight rain. Cloudy.5 mph93%29.79 "Hg7 mi
7:53 AM52 °FMore clouds than sun.7 mph89%29.79 "Hg10 mi
6:53 AM52 °FLight rain. Mostly cloudy.6 mph93%29.79 "Hg10 mi
5:53 AM52 °FLight rain. Overcast.12 mph97%29.78 "Hg10 mi
4:53 AM52 °FLight rain. Mostly cloudy.9 mph97%29.78 "Hg10 mi
4:02 AM51 °FMostly cloudy.10 mph96%29.77 "Hg9 mi
2:53 AM51 °FLight rain. Overcast.3 mph96%29.77 "Hg10 mi
1:53 AM51 °FLight rain. Mostly cloudy.7 mph96%29.76 "Hg10 mi
12:53 AM51 °FLight rain. Fog.10 mph96%29.75 "Hg3 mi
11:53 PM
Fri, Jun 24
52 °FLight rain. Fog.7 mph97%29.73 "Hg2 mi
10:53 PM52 °FLight rain. Fog.3 mph97%29.72 "Hg1 mi
9:53 PM51 °FFog.5 mph100%29.71 "Hg5 mi
9:03 PM52 °FMostly cloudy.6 mph97%29.70 "Hg8 mi
7:53 PM52 °FFog.5 mph97%29.70 "Hg4 mi
6:53 PM53 °FMostly cloudy.6 mph96%29.70 "Hg10 mi
6:00 PM53 °FLight rain. Fog.5 mph96%29.70 "Hg2 mi
4:53 PM53 °FLight rain. Fog.5 mph96%29.70 "Hg4 mi
3:53 PM54 °FLight rain. Fog.5 mph93%29.70 "Hg4 mi
2:53 PM54 °FLight rain. Fog.5 mph93%29.70 "Hg5 mi
1:53 PM54 °FLight rain. Mostly cloudy.8 mph86%29.70 "Hg10 mi
12:53 PM54 °FLight rain. Mostly cloudy.8 mph83%29.70 "Hg10 mi
11:53 AM53 °FMostly cloudy.9 mph89%29.70 "Hg9 mi
Weather by CustomWeather, © 2016

See weather overviewHow to use our weather pages